Renton, WA

11:36 PM PDT on September 28, 2016 (GMT -0700)
Renton Municipal

Weather History for KRNT - February, 2015

Change the Weather History Date:

Thursday, February 12, 2015

  Actual Average Record
Temperature  
Mean Temperature 55 °F -  
Max Temperature 62 °F 48 °F 62 °F (2004)
Min Temperature 48 °F 35 °F 30 °F (2001)
Degree Days  
Heating Degree Days 10    
Growing Degree Days 5 (Base 50)    
Moisture  
Dew Point 48 °F    
Average Humidity 81    
Maximum Humidity 100    
Minimum Humidity 50    
Precipitation  
Precipitation 0.02 in - - ()
Sea Level Pressure  
Sea Level Pressure 30.25 in    
Wind  
Wind Speed 3 mph (SE)    
Max Wind Speed 6 mph    
Max Gust Speed -    
Visibility 10 miles    
Events Rain    
Averages and records for this station are not official NWS values.
T = Trace of Precipitation, MM = Missing Value Source: NWS Daily Summary

Daily Weather History Graph

Daily Weather History Graph

Search for Another Location

Airport or City:

Trip Planner

Search our weather history database for the weather conditions in past years. The results will help you decide how hot, cold, wet, or windy it might be!

Date:

Astronomy

Feb. 12, 2015 Rise Set
Actual Time 7:19 AM PST 5:27 PM PST
Civil Twilight 6:47 AM PST 5:59 PM PST
Nautical Twilight 6:11 AM PST 6:35 PM PST
Astronomical Twilight 5:35 AM PST 7:11 PM PST
Moon 1:31 AM PST (2/12) 11:22 AM PST (2/12)
Length of Visible Light 11h 12m
Length of Day
10h 08m
Last Quarter, 43% of the Moon is Illuminated
Feb 12
Last Quarter
Feb 18
New
Feb 25
First Quarter
Mar 5
Full
Mar 13
Last Quarter

Hourly Weather History & Observations

Time (PST) Temp. Dew Point Humidity Pressure Visibility Wind Dir Wind Speed Gust Speed Precip Events Conditions
12:53 AM 50.0 °F 48.2 °F 94% 30.23 in 10.0 mi SSE 3.5 mph - N/A Rain Light Rain
1:53 AM 50.0 °F 48.9 °F 96% 30.23 in 10.0 mi East 3.5 mph - 0.01 in Rain Light Rain
2:53 AM 48.9 °F 48.9 °F 100% 30.22 in 8.0 mi Calm Calm - 0.01 in Rain Light Rain
3:53 AM 48.9 °F 48.9 °F 100% 30.21 in 10.0 mi Calm Calm - 0.00 in   Partly Cloudy
4:53 AM 48.9 °F 48.0 °F 97% 30.21 in 10.0 mi Calm Calm - N/A   Overcast
5:53 AM 48.9 °F 48.9 °F 100% 30.22 in 10.0 mi SSE 4.6 mph - 0.00 in   Overcast
6:53 AM 48.9 °F 48.0 °F 97% 30.21 in 10.0 mi South 3.5 mph - 0.00 in   Overcast
7:53 AM 50.0 °F 48.9 °F 96% 30.23 in 8.0 mi Calm Calm - N/A   Overcast
8:53 AM 50.0 °F 48.9 °F 96% 30.23 in 10.0 mi SE 4.6 mph - N/A   Overcast
9:53 AM 54.0 °F 48.9 °F 83% 30.25 in 10.0 mi SSE 4.6 mph - N/A   Mostly Cloudy
10:53 AM 54.0 °F 50.0 °F 86% 30.27 in 10.0 mi South 5.8 mph - N/A   Scattered Clouds
11:53 AM 57.9 °F 48.9 °F 72% 30.27 in 10.0 mi SE 4.6 mph - N/A   Overcast
12:53 PM 60.1 °F 46.0 °F 60% 30.25 in 10.0 mi SSE 5.8 mph - N/A   Overcast
1:53 PM 62.1 °F 46.9 °F 58% 30.24 in 10.0 mi South 4.6 mph - N/A   Partly Cloudy
2:53 PM 62.1 °F 43.0 °F 50% 30.24 in 10.0 mi SSE 5.8 mph - N/A   Scattered Clouds
3:53 PM 62.1 °F 45.0 °F 53% 30.25 in 10.0 mi South 5.8 mph - N/A   Mostly Cloudy
4:53 PM 60.1 °F 46.0 °F 60% 30.27 in 10.0 mi South 5.8 mph - N/A   Overcast
5:53 PM 59.0 °F 46.0 °F 62% 30.28 in 10.0 mi Calm Calm - N/A   Overcast
6:53 PM 57.9 °F 46.9 °F 67% 30.28 in 10.0 mi ESE 5.8 mph - 0.00 in   Overcast
7:53 PM 55.9 °F 48.9 °F 77% 30.28 in 10.0 mi SE 3.5 mph - N/A   Overcast
8:31 PM 55.9 °F 50.0 °F 80% 30.26 in 10.0 mi ESE 3.5 mph - N/A   Overcast
8:53 PM 55.0 °F 50.0 °F 83% 30.27 in 10.0 mi East 3.5 mph - N/A   Overcast
9:05 PM 55.9 °F 50.0 °F 80% 30.25 in 10.0 mi East 3.5 mph - N/A   Overcast
9:17 PM 55.9 °F 50.0 °F 80% 30.24 in 10.0 mi Calm Calm - N/A   Overcast
9:53 PM 55.0 °F 48.9 °F 80% 30.26 in 10.0 mi NNW 3.5 mph - N/A   Overcast
10:53 PM 54.0 °F 48.9 °F 83% 30.27 in 10.0 mi NW 4.6 mph - N/A   Overcast
11:53 PM 51.1 °F 48.0 °F 89% 30.27 in 10.0 mi Calm Calm - N/A   Clear